Regional Weather Roundup
Issued by NWS

Home | Current Version | Previous Version | Text Only | Print | Product List | Glossary Off
Versions: 1 2 3 4 5 6 7 8 9 10 11 12 13 14 15 16 17 18 19 20 21 22 23 24 25 26 27 28 29 30 31 32 33 34 35 36 37 38 39 40 41 42 43 44 45 46 47 48 49 50

000
ASUS43 KLMK 260702
RWRKY
KENTUCKY REGIONAL WEATHER ROUNDUP
NATIONAL WEATHER SERVICE LOUISVILLE KY
300 AM EDT FRI MAY 26 2017

NOTE "FAIR" INDICATES FEW OR NO CLOUDS BELOW 12,000 FEET
WITH NO SIGNIFICANT WEATHER AND/OR OBSTRUCTIONS TO VISIBILITY.

KYZ001>023-026-027-061>063-070>075-260800-
WESTERN AND SOUTH CENTRAL KENTUCKY

CITY           SKY/WX    TMP DP  RH WIND       PRES   REMARKS
PADUCAH        PTCLDY    60  49  66 CALM      29.84R
HENDERSON      PTCLDY    58  53  84 S5        29.85S
OWENSBORO      CLEAR     57  53  86 S5        29.86S
HOPKINSVILLE   CLEAR     58  53  82 CALM      29.88R
BOWLING GREEN  PTCLDY    59  53  80 SW5       29.89R
GLASGOW        NOT AVBL
$$

KYZ024-025-028>034-038-045-046-053-260800-
NORTH CENTRAL KENTUCKY

CITY           SKY/WX    TMP DP  RH WIND       PRES   REMARKS
LOUISVILLE/SDF PTCLDY    59  56  89 CALM      29.85R
LOUISVILLE/LOU CLEAR     56  55  97 CALM      29.86R FOG
FORT KNOX      CLEAR     55  53  95 SW5       29.85R
$$

KYZ035>037-039>044-047>052-055>060-089>105-260800-
NORTHEAST KENTUCKY

CITY           SKY/WX    TMP DP  RH WIND       PRES   REMARKS
LEXINGTON      PTCLDY    56  53  90 SW7       29.87R FOG
COVINGTON      CLEAR     55  52  89 SW5       29.82S
FRANKFORT      MOCLDY    56  52  86 SW5       29.85R
$$

KYZ054-064>069-076>088-106>120-260800-
SOUTHEAST KENTUCKY

CITY           SKY/WX    TMP DP  RH WIND       PRES   REMARKS
JACKSON        MOCLDY    57  56  96 CALM      29.87R FOG
LONDON         PTCLDY    56  52  86 SW5       29.90R
SOMERSET       NOT AVBL
MIDDLESBORO    CLEAR     54  53  96 CALM      29.91R
MONTICELLO     MOSUNNY   50  50 100 CALM      29.92S FOG
$$





USA.gov is the U.S. government's official web portal to all federal, state and local government web resources and services.